[[{"header":{"parameterUnit":"m.s-1","parameterCategory":1,"la1":30.2991,"la2":30.254,"lo1":-89.0895,"lo2":-89.0444,"dy":0.0017,"dx":0.0017,"nx":28,"ny":28,"refTime":"2024-08-21T21:00:00:Z","depth":0,"parameterNumber":2,"parameterNumberName":"U-component_of_WINDS"},"data":[0,0,0,0,0,0,0,0,0,0,0,0,0,0,0,0,0,0,0,0,0,0,0,0,0,0,0,0,0,0,0,0,0,0,0,0,0,0,0,0,0,0,0,0,0,0,0,0,0,0,0,0,0,0,0,0,0,0,-5.7895,-5.7896,0,-5.7982,-5.7983,-5.7984,-5.7883,-5.7879,-5.7875,-5.7871,-5.7963,-5.7969,-5.7975,0,0,0,0,0,0,0,0,0,0,0,0,0,-5.7645,-5.7651,-5.7895,-5.7896,-5.7897,-5.7981,-5.7983,-5.7984,-5.7883,-5.7879,-5.7874,-5.787,-5.7961,-5.7968,-5.7975,0,0,0,0,0,0,0,0,0,0,0,0,0,-5.7745,-5.7652,-5.7895,-5.7857,-5.7854,-5.7981,-5.7983,-5.7984,-5.7884,-5.7878,-5.7873,-5.7867,-5.7959,-5.7967,-5.7976,-5.8145,0,0,-5.8004,-5.8007,0,0,0,0,0,0,0,0,-5.774,-5.7755,-5.7861,-5.786,-5.7857,-5.7915,-5.7928,-5.8038,-5.7886,-5.7873,-5.7871,-5.7865,-5.7952,-5.7961,-5.799,-5.8149,-5.8153,-5.8004,-5.801,-5.8014,-5.8016,0,0,0,0,0,0,0,-5.7733,-5.775,-5.7929,-5.7863,-5.7861,-5.7837,-5.7845,-5.7949,-5.7943,-5.7874,-5.7866,-5.7878,-5.795,-5.7981,-5.7991,-5.8155,-5.8004,-5.8012,-5.8018,-5.8021,-5.8459,-5.8465,0,0,0,0,0,0,-5.773,-5.7745,-5.7926,-5.7932,-5.7783,-5.7846,-5.7855,-5.7902,-5.7942,-5.7942,-5.7883,-5.7873,-5.7969,-5.7981,-5.7994,-5.8196,-5.8014,-5.8022,-5.8027,-5.8453,-5.846,-5.8467,0,0,0,0,0,0,-5.7725,-5.7747,-5.7923,-5.7837,-5.7857,-5.7856,-5.7911,-5.7907,-5.7939,-5.7949,-5.7948,-5.7916,-5.7965,-5.7981,-5.8108,-5.8197,-5.8026,-5.8034,-5.8445,-5.8455,-5.8464,-5.86,0,0,0,0,0,0,-5.7718,-5.7746,-5.7809,-5.7839,-5.7862,-5.8035,-5.7916,-5.7913,-5.7954,-5.7942,-5.798,-5.798,-5.7962,-5.8096,-5.8117,-5.8207,-5.8041,-5.8437,-5.845,-5.8461,-5.8588,-5.8613,-5.8634,0,0,0,0,0,-5.771,-5.7844,-5.7813,-5.7836,-5.7941,-5.8041,-5.8054,-5.8029,-5.7962,-5.8026,-5.8033,-5.7979,-5.8184,-5.811,-5.8133,-5.8227,-5.8432,-5.8446,-5.846,-5.8577,-5.8608,-5.8634,0,0,0,0,0,0,-5.7826,-5.7848,-5.7813,-5.7961,-5.8,-5.8023,-5.8104,-5.8062,-5.8122,-5.8108,-5.8075,-5.8085,-5.822,-5.8236,-5.8152,-5.8393,-5.8297,-5.8316,-5.8378,-5.8407,-5.843,-5.8424,-5.8049,0,0,0,0,0,-5.7869,-5.7947,-5.7962,-5.8091,-5.8112,-5.8105,-5.8147,-5.8125,-5.8164,-5.818,-5.8195,-5.8237,-5.831,-5.8359,-5.8427,-5.8589,-5.8597,-5.8665,-5.8688,-5.8707,-5.8725,-5.8814,-5.8845,-5.8513,-5.8513,-5.8513,0,0,-5.7959,-5.798,-5.8031,-5.8115,-5.8142,-5.8225,-5.8119,-5.8211,-5.8273,-5.8194,-5.8315,-5.8328,-5.8372,-5.8517,-5.8582,-5.8535,-5.8818,-5.8725,-5.8741,-5.8748,-5.8831,-5.8863,-5.8891,-5.8523,-5.8521,-5.852,0,0,-5.8164,-5.8188,-5.8298,-5.8328,-5.837,-5.8365,-5.8392,-5.8422,-5.8428,-5.8548,-5.8492,-5.8565,-5.8692,-5.8725,-5.8759,-5.8979,-5.8933,-5.9002,-5.9125,-5.9212,-5.9238,-5.9261,-5.9341,-5.937,-5.9019,-5.902,-5.902,0,-5.827,-5.8392,-5.8361,-5.8457,-5.8497,-5.8428,-5.8541,-5.8572,-5.8635,-5.8664,-5.861,-5.8768,-5.8793,-5.8946,-5.9,-5.9029,-5.906,-5.8998,-5.9237,-5.9259,-5.928,-5.9356,-5.9387,-5.9028,-5.9027,-5.9026,-5.9025,0,-5.8521,-5.8606,-5.8691,-5.8753,-5.8802,-5.8906,-5.8892,-5.8946,-5.8919,-5.892,-5.9045,-5.9071,-5.9145,-5.9179,-5.9154,-5.933,-5.9299,-5.9241,-5.9144,-5.9321,-5.9392,-5.9421,-5.904,-5.9037,-5.9034,-5.9032,0,0,-5.8803,-5.8847,-5.8879,-5.8907,-5.8949,-5.9015,-5.9117,-5.9187,-5.9235,-5.9281,-5.9366,-5.9476,-5.9423,-5.9461,-5.944,-5.9516,-5.969,-5.9448,-5.9449,-5.9494,-5.9887,-5.9932,-5.9966,-5.9659,-5.9664,-5.9669,-5.9884,0,-5.901,-5.9186,-5.9161,-5.9331,-5.941,-5.9347,-5.9436,-5.9472,-5.9476,-5.9544,-5.9548,-5.9627,-5.955,-5.9574,-5.9646,-5.9654,-5.9769,-5.9637,-5.974,-5.9744,-5.9733,-6.0003,-6.005,-6.0252,-5.9912,-5.9916,-5.992,0,-5.9276,-5.9331,-5.9509,-5.9539,-5.9572,-5.9652,-5.9716,-5.9781,-5.9822,-5.9819,-5.9863,-5.9828,-5.9932,-5.9832,-5.9975,-5.9887,-5.9927,-5.9938,-5.9945,-5.9955,-5.9844,-6.0022,-6.0315,-6.0347,-5.9963,-5.9959,-5.9956,0,-5.9466,-5.9585,-5.9706,-5.9732,-5.9771,-5.9829,-5.9848,-5.9883,-5.9927,-5.9983,-6.0012,-6.008,-6.0117,-6.0171,-6.0156,-6.0085,-6.0304,-6.0202,-6.0306,-6.0307,-6.0356,-6.0353,-6.0662,-6.038,-6.0379,-6.0379,-6.0378,0,-5.9701,-5.9812,-5.9792,-5.9868,-5.9991,-5.9962,-6.0085,-6.0097,-6.0128,-6.0206,-6.0155,-6.0229,-6.0203,-6.0276,-6.0265,-6.0387,-6.0404,-6.0406,-6.0402,-6.0411,-6.0411,-6.0438,-6.0425,-6.0387,-6.0385,-6.0383,-6.0382,0,-5.9935,-5.9925,-6.0054,-6.008,-6.009,-6.018,-6.0202,-6.0274,-6.0273,-6.0372,-6.0393,-6.0393,-6.0477,-6.0466,-6.0559,-6.0552,-6.0704,-6.0682,-6.069,-6.0686,-6.079,-6.0782,-6.1129,-6.1174,-6.0861,-6.0864,-6.0866,0,-6.0086,-6.017,-6.0205,-6.0253,-6.0276,-6.0354,-6.0399,-6.0374,-6.0423,-6.0476,-6.0542,-6.062,-6.0682,-6.0819,-6.0828,-6.0899,-6.088,-6.0997,-6.0891,-6.0898,-6.0884,-6.088,-6.0889,-6.1018,-6.1022,-6.1025,-6.1027,0,-6.0356,-6.0348,-6.0414,-6.048,-6.0535,-6.0586,-6.0632,-6.0674,-6.0654,-6.0712,-6.0796,-6.0844,-6.0939,-6.1019,-6.1087,-6.1107,-6.1066,-6.106,-6.1088,-6.11,-6.1102,-6.1104,-6.0749,-6.1053,-6.105,-6.1048,-6.1047,-6.1046,-6.0555,-6.0627,-6.0663,-6.074,-6.0771,-6.0815,-6.0884,-6.0892,-6.0962,-6.1037,-6.1018,-6.1114,-6.1153,-6.124,-6.1268,-6.1343,-6.1301,-6.1341,-6.1352,-6.1362,-6.1376,-6.1089,-6.1355,-6.1354,-6.1354,-6.1353,-6.1353,0,-6.0824,-6.0844,-6.0914,-6.098,-6.104,-6.0994,-6.1042,-6.1096,-6.1181,-6.1221,-6.1283,-6.138,-6.1457,-6.1473,-6.1547,-6.1604,-6.1587,-6.1625,-6.1621,-6.1627,-6.1408,-6.1377,-6.1638,-6.1638,-6.1638,-6.1638,-6.1637,-6.1637,-6.0971,-6.1091,-6.1088,-6.1224,-6.1243,-6.1336,-6.1368,-6.1409,-6.1441,-6.1552,-6.1616,-6.1624,-6.1655,-6.1731,-6.18,-6.1803,-6.1833,-6.1879,-6.1875,-6.1671,-6.1642,-6.1615,-6.1586,-6.1886,-6.1886,-6.2087,-6.2089,-6.2091]},{"header":{"parameterUnit":"m.s-1","parameterCategory":1,"la1":30.2991,"la2":30.254,"lo1":-89.0895,"lo2":-89.0444,"dy":0.0017,"dx":0.0017,"nx":28,"ny":28,"refTime":"2024-08-21T21:00:00:Z","depth":0,"parameterNumber":3,"parameterNumberName":"V-component_of_WINDS"},"data":[0,0,0,0,0,0,0,0,0,0,0,0,0,0,0,0,0,0,0,0,0,0,0,0,0,0,0,0,0,0,0,0,0,0,0,0,0,0,0,0,0,0,0,0,0,0,0,0,0,0,0,0,0,0,0,0,0,0,-1.9481,-1.9481,0,-1.9429,-1.9429,-1.9428,-1.9359,-1.9358,-1.9357,-1.9356,-1.9304,-1.9303,-1.9303,0,0,0,0,0,0,0,0,0,0,0,0,0,-1.9522,-1.9521,-1.9482,-1.9481,-1.948,-1.9429,-1.9429,-1.9428,-1.936,-1.9358,-1.9357,-1.9356,-1.9304,-1.9303,-1.9303,0,0,0,0,0,0,0,0,0,0,0,0,0,-1.9491,-1.9521,-1.9482,-1.944,-1.9436,-1.943,-1.9429,-1.9428,-1.936,-1.9358,-1.9356,-1.9355,-1.9304,-1.9303,-1.9303,-1.9334,0,0,-1.9301,-1.9301,0,0,0,0,0,0,0,0,-1.9492,-1.9489,-1.9447,-1.9443,-1.9438,-1.9399,-1.9424,-1.9396,-1.936,-1.9389,-1.9356,-1.9354,-1.9337,-1.9334,-1.9327,-1.9331,-1.9329,-1.9301,-1.9301,-1.9301,-1.9301,0,0,0,0,0,0,0,-1.9495,-1.9491,-1.9461,-1.9446,-1.9441,-1.9424,-1.9417,-1.9418,-1.9373,-1.9386,-1.9381,-1.9376,-1.9334,-1.9328,-1.9326,-1.9328,-1.9301,-1.9301,-1.9301,-1.93,-1.9353,-1.9355,0,0,0,0,0,0,-1.9503,-1.9493,-1.9463,-1.9459,-1.9461,-1.9424,-1.9417,-1.9413,-1.9373,-1.9365,-1.9377,-1.9373,-1.933,-1.9326,-1.9324,-1.9356,-1.9301,-1.93,-1.93,-1.9352,-1.9354,-1.9356,0,0,0,0,0,0,-1.9504,-1.9501,-1.9465,-1.9475,-1.9469,-1.9426,-1.9422,-1.9413,-1.9407,-1.9366,-1.9358,-1.9379,-1.9328,-1.9324,-1.9331,-1.9354,-1.93,-1.93,-1.935,-1.9352,-1.9355,-1.9423,0,0,0,0,0,0,-1.9506,-1.9502,-1.9513,-1.9476,-1.9469,-1.9474,-1.9423,-1.9413,-1.9406,-1.94,-1.9366,-1.9359,-1.9327,-1.9333,-1.9331,-1.9352,-1.9299,-1.9347,-1.9351,-1.9354,-1.9418,-1.9427,-1.9435,0,0,0,0,0,-1.9507,-1.9535,-1.9514,-1.9511,-1.9482,-1.9475,-1.9471,-1.9433,-1.9408,-1.9419,-1.9393,-1.936,-1.9351,-1.9334,-1.9331,-1.9353,-1.9346,-1.935,-1.9354,-1.9414,-1.9425,-1.9435,0,0,0,0,0,0,-1.9577,-1.9529,-1.9506,-1.9522,-1.9503,-1.9463,-1.9476,-1.9446,-1.9435,-1.9429,-1.9383,-1.9376,-1.9389,-1.9371,-1.9353,-1.938,-1.9344,-1.9347,-1.9391,-1.9401,-1.9409,-1.9413,-1.9299,0,0,0,0,0,-1.9594,-1.9592,-1.9551,-1.9569,-1.9561,-1.952,-1.9516,-1.9488,-1.9467,-1.9459,-1.9433,-1.9413,-1.9406,-1.9402,-1.9394,-1.9415,-1.9406,-1.9428,-1.9437,-1.9444,-1.9447,-1.9456,-1.9465,-1.9368,-1.9368,-1.9368,0,0,-1.963,-1.9603,-1.9605,-1.9582,-1.9564,-1.9563,-1.9514,-1.9515,-1.9514,-1.9459,-1.9464,-1.9444,-1.9419,-1.9433,-1.9438,-1.9419,-1.9472,-1.9449,-1.9455,-1.9454,-1.9461,-1.9471,-1.9479,-1.9371,-1.937,-1.937,0,0,-1.9694,-1.9674,-1.9687,-1.9669,-1.9643,-1.9615,-1.9618,-1.9583,-1.9567,-1.9571,-1.953,-1.9527,-1.9516,-1.95,-1.949,-1.9547,-1.9516,-1.9545,-1.9589,-1.9598,-1.9606,-1.9613,-1.9632,-1.964,-1.9549,-1.9549,-1.9549,0,-1.9742,-1.9738,-1.9697,-1.9701,-1.9691,-1.9641,-1.9653,-1.9638,-1.961,-1.9605,-1.9584,-1.9568,-1.9548,-1.9557,-1.9571,-1.9565,-1.9566,-1.9549,-1.9608,-1.9614,-1.962,-1.9638,-1.9646,-1.9553,-1.9553,-1.9552,-1.9552,0,-1.9798,-1.9796,-1.981,-1.9783,-1.9775,-1.9784,-1.9743,-1.974,-1.9713,-1.9688,-1.9692,-1.9666,-1.9651,-1.9651,-1.9625,-1.9656,-1.9645,-1.9617,-1.9579,-1.9634,-1.965,-1.9656,-1.9558,-1.9557,-1.9556,-1.9555,0,0,-1.9906,-1.9855,-1.9861,-1.9848,-1.9814,-1.9811,-1.9817,-1.9801,-1.9799,-1.9781,-1.9784,-1.9775,-1.9748,-1.9737,-1.9709,-1.9717,-1.9763,-1.9688,-1.9686,-1.9702,-1.9794,-1.9816,-1.9824,-1.9742,-1.9743,-1.9744,-1.9796,0,-1.9963,-1.9969,-1.9932,-1.9948,-1.9945,-1.9896,-1.9901,-1.988,-1.9857,-1.9851,-1.9825,-1.9819,-1.9785,-1.9777,-1.9783,-1.9756,-1.9781,-1.9752,-1.9744,-1.9744,-1.9751,-1.9833,-1.9856,-1.9906,-1.9802,-1.9803,-1.9804,0,-2.0032,-2.0017,-2.0032,-1.9996,-1.9994,-1.9999,-1.998,-1.9976,-1.9951,-1.9933,-1.992,-1.9887,-1.9889,-1.9854,-1.9856,-1.9837,-1.9831,-1.9817,-1.9818,-1.9816,-1.9777,-1.9833,-1.9922,-1.993,-1.9814,-1.9813,-1.9812,0,-2.0108,-2.0092,-2.0098,-2.0089,-2.0047,-2.0052,-2.0035,-2.0008,-2.0001,-1.9985,-1.9979,-1.9964,-1.9956,-1.9945,-1.9908,-1.9886,-1.9914,-1.9876,-1.9899,-1.99,-1.9907,-1.9907,-1.9997,-1.9904,-1.9904,-1.9904,-1.9904,0,-2.0176,-2.0188,-2.0132,-2.0136,-2.0147,-2.0104,-2.0116,-2.0094,-2.0071,-2.0069,-2.0026,-2.0026,-1.9978,-1.9972,-1.9944,-1.9949,-1.9946,-1.9931,-1.9923,-1.9935,-1.9937,-1.993,-1.9926,-1.9906,-1.9906,-1.9905,-1.9905,0,-2.0263,-2.0227,-2.0231,-2.0191,-2.0181,-2.0191,-2.0156,-2.0158,-2.0132,-2.0131,-2.0128,-2.0086,-2.0077,-2.0039,-2.0021,-2.0002,-2.0016,-2.0001,-2.0025,-2.002,-2.0045,-2.0043,-2.0133,-2.0142,-2.0045,-2.0046,-2.0047,0,-2.0309,-2.0317,-2.0277,-2.0273,-2.0258,-2.0252,-2.0244,-2.0201,-2.0194,-2.0166,-2.0171,-2.0159,-2.0146,-2.0134,-2.0102,-2.0087,-2.0071,-2.0104,-2.0069,-2.008,-2.0071,-2.0071,-2.0071,-2.0112,-2.0113,-2.0114,-2.0115,0,-2.0395,-2.0376,-2.0366,-2.0349,-2.034,-2.0325,-2.0307,-2.0307,-2.0259,-2.0253,-2.0243,-2.0233,-2.0214,-2.0202,-2.0182,-2.0164,-2.0131,-2.0126,-2.013,-2.0142,-2.0155,-2.0148,-2.0045,-2.0124,-2.0123,-2.0122,-2.0122,-2.0122,-2.0462,-2.0466,-2.0438,-2.0428,-2.041,-2.0394,-2.0394,-2.0367,-2.0357,-2.0338,-2.0314,-2.0306,-2.028,-2.025,-2.0234,-2.0228,-2.021,-2.0216,-2.0218,-2.022,-2.0226,-2.0156,-2.0224,-2.0224,-2.0223,-2.0223,-2.0223,0,-2.0545,-2.0524,-2.0515,-2.0491,-2.0483,-2.0453,-2.0431,-2.0426,-2.042,-2.0399,-2.0387,-2.0375,-2.0362,-2.0329,-2.0313,-2.0314,-2.0298,-2.0311,-2.031,-2.0307,-2.0243,-2.0241,-2.0324,-2.0324,-2.0324,-2.0324,-2.0324,-2.0324,-2.0586,-2.0591,-2.0569,-2.0564,-2.0543,-2.0536,-2.0526,-2.0511,-2.0493,-2.0481,-2.047,-2.0448,-2.0422,-2.0403,-2.039,-2.038,-2.0376,-2.0394,-2.0379,-2.0321,-2.0311,-2.0302,-2.0299,-2.0393,-2.0394,-2.0443,-2.0444,-2.0444]}]]